Location: Unspecified
(28.6565°N, 0.0000°E)
Time: 12:13:38
(UTC+00:00)

DPAF - Visible Passes

Search period start: 04 April 2026 00:00
Search period end: 14 April 2026 00:00
Orbit: 756 x 840 km, 108.0° (Epoch: 29 March)

Date Brightness Start Highest point End Pass type
(mag) Time Alt. Az. Time Alt. Az. Time Alt. Az.
4 Apr 9.5 04:17:45 10° ESE 04:22:03 25° ENE 04:26:19 10° N visible
4 Apr 10.0 19:56:22 10° NNW 19:59:23 16° NW 20:02:24 10° W visible
5 Apr 10.2 03:52:51 10° E 03:55:09 13° NE 03:57:25 10° NNE visible
5 Apr 8.9 19:27:58 10° N 19:32:24 32° WNW 19:36:47 10° WSW visible
6 Apr 8.1 05:00:39 10° SE 05:05:53 54° ENE 05:11:03 10° NNW visible
6 Apr 7.4 19:00:18 10° NNE 19:05:18 67° WNW 19:10:12 10° SSW visible
7 Apr 9.4 04:34:22 10° ESE 04:38:49 27° ENE 04:43:13 10° N visible
7 Apr 10.0 20:13:24 10° NNW 20:16:07 15° NW 20:18:48 10° W visible
8 Apr 10.2 04:09:12 10° E 04:11:52 14° NE 04:14:31 10° NNE visible
8 Apr 9.0 19:44:51 10° N 19:49:08 29° WNW 19:53:23 10° WSW visible
9 Apr 7.6 19:17:06 10° NNE 19:22:02 61° WNW 19:26:54 10° SW visible
10 Apr 9.3 04:50:59 10° ESE 04:55:33 30° ENE 05:00:05 10° N visible
10 Apr 7.0 18:49:51 10° NNE 18:54:48 63° ESE 18:59:42 10° SSW visible
10 Apr 10.1 20:30:28 10° NNW 20:32:49 13° NW 20:35:08 10° W visible
11 Apr 10.1 04:25:37 10° E 04:28:35 15° NE 04:31:34 10° NNE visible
11 Apr 9.1 20:01:43 10° N 20:05:51 27° WNW 20:09:58 10° WSW visible
12 Apr 7.7 19:33:53 10° NNE 19:38:46 55° WNW 19:43:35 10° SW visible
13 Apr 9.3 05:07:35 10° ESE 05:12:17 32° ENE 05:16:56 10° N visible
13 Apr 6.9 19:06:34 10° NNE 19:11:32 70° ESE 19:16:28 10° SSW visible
13 Apr 10.2 20:47:37 10° NNW 20:49:30 12° NW 20:51:22 10° WNW visible
